Weather History for KTEB - October, 2012

Change the Weather History Date:

Thursday, October 18, 2012

  Actual Average (KNYC) Record (KNYC)
Temperature  
Mean Temperature 54 °F 56 °F  
Max Temperature 70 °F 63 °F 82 °F (1928)
Min Temperature 42 °F 49 °F 35 °F (1974)
Degree Days  
Heating Degree Days 11 9  
Month to date heating degree days 124  
Since 1 July heating degree days 169  
Cooling Degree Days 0 0  
Month to date cooling degree days 13  
Year to date cooling degree days 1100  
Growing Degree Days 4 (Base 50)    
Moisture  
Dew Point 48 °F    
Average Humidity 72    
Maximum Humidity 93    
Minimum Humidity 50    
Precipitation  
Precipitation 0.00 in 0.14 in 2.45 in (1911)
Month to date precipitation 2.59  
Year to date precipitation 40.11  
Snow  
Snow 0.00 in 0.00 in T in (1972)
Month to date snowfall 0.0  
Since 1 July snowfall 0.0  
Snow Depth -    
Sea Level Pressure  
Sea Level Pressure 29.99 in    
Wind  
Wind Speed 4 mph (SE)    
Max Wind Speed 15 mph    
Max Gust Speed 22 mph    
Visibility 10 miles    
Events Fog    
T = Trace of Precipitation, MM = Missing Value Source: NWS Daily Summary

Daily Weather History Graph

Daily Weather History Graph

Search for Another Location

Airport or City:

Trip Planner

Search our weather history database for the weather conditions in past years. The results will help you decide how hot, cold, wet, or windy it might be!

Date:

Astronomy

Oct. 18, 2012 Rise Set
Actual Time 7:11 AM EDT 6:10 PM EDT
Civil Twilight 6:43 AM EDT 6:38 PM EDT
Nautical Twilight 6:11 AM EDT 7:10 PM EDT
Astronomical Twilight 5:39 AM EDT 7:41 PM EDT
Moon 10:51 AM EDT (10/18) 8:40 PM EDT (10/18)
Length of Visible Light 11h 54m
Length of Day
10h 59m
Waxing Crescent, 14% of the Moon is Illuminated
Oct 18
Waxing Crescent
Oct 21
First Quarter
Oct 29
Full
Nov 6
Last Quarter
Nov 13
New

Hourly Weather History & Observations

Time (EDT) Temp. Windchill Dew Point Humidity Pressure Visibility Wind Dir Wind Speed Gust Speed Precip Events Conditions
12:51 AM 46.0 °F - 43.0 °F 89% 29.99 in 10.0 mi Calm Calm - N/A   Clear
1:51 AM 46.9 °F - 43.0 °F 86% 29.99 in 10.0 mi Calm Calm - N/A Fog Shallow Fog
2:51 AM 45.0 °F 43.5 °F 42.1 °F 90% 29.99 in 10.0 mi NW 3.5 mph - N/A Fog Shallow Fog
3:51 AM 44.1 °F - 41.0 °F 89% 29.99 in 10.0 mi Calm Calm - N/A Fog Shallow Fog
4:51 AM 43.0 °F - 41.0 °F 93% 30.01 in 10.0 mi Calm Calm - N/A   Clear
5:51 AM 44.1 °F - 41.0 °F 89% 30.01 in 10.0 mi Calm Calm - N/A   Clear
6:51 AM 42.1 °F - 39.0 °F 89% 30.01 in 10.0 mi Calm Calm - N/A   Clear
7:51 AM 44.1 °F 42.5 °F 39.9 °F 85% 30.04 in 10.0 mi NW 3.5 mph - N/A Fog Shallow Fog
8:51 AM 48.9 °F - 43.0 °F 80% 30.04 in 10.0 mi Variable 4.6 mph - N/A   Clear
9:51 AM 55.9 °F - 46.0 °F 69% 30.03 in 10.0 mi Calm Calm - N/A   Clear
10:51 AM 63.0 °F - 48.9 °F 60% 30.02 in 10.0 mi Calm Calm - N/A   Clear
11:51 AM 64.9 °F - 48.0 °F 54% 30.03 in 10.0 mi SSW 10.4 mph - N/A   Scattered Clouds
12:51 PM 66.0 °F - 46.9 °F 50% 30.01 in 10.0 mi South 9.2 mph - N/A   Clear
1:51 PM 66.0 °F - 46.9 °F 50% 30.00 in 10.0 mi South 9.2 mph 18.4 mph N/A   Partly Cloudy
2:51 PM 66.0 °F - 46.9 °F 50% 29.99 in 10.0 mi South 10.4 mph - N/A   Partly Cloudy
3:51 PM 66.0 °F - 46.9 °F 50% 29.97 in 10.0 mi SE 12.7 mph 20.7 mph N/A   Clear
4:51 PM 64.0 °F - 48.9 °F 58% 29.96 in 10.0 mi SE 12.7 mph - N/A   Clear
5:51 PM 64.0 °F - 51.1 °F 63% 29.97 in 10.0 mi SE 15.0 mph 20.7 mph N/A   Mostly Cloudy
6:06 PM 66.2 °F - 51.8 °F 60% 29.97 in 10.0 mi SE 11.5 mph 21.9 mph N/A   Mostly Cloudy
6:51 PM 62.1 °F - 52.0 °F 70% 30.00 in 10.0 mi SSE 4.6 mph - N/A   Overcast
7:51 PM 62.1 °F - 53.1 °F 72% 30.01 in 10.0 mi East 5.8 mph - N/A   Overcast
8:51 PM 62.1 °F - 53.1 °F 72% 29.99 in 10.0 mi East 4.6 mph - N/A   Overcast
9:23 PM 62.6 °F - 53.6 °F 72% 29.98 in 10.0 mi East 5.8 mph - N/A   Overcast
9:51 PM 62.1 °F - 54.0 °F 75% 29.97 in 10.0 mi East 4.6 mph - N/A   Overcast
10:27 PM 62.6 °F - 53.6 °F 72% 29.96 in 10.0 mi NNE 4.6 mph - 0.00 in   Light Drizzle
10:51 PM 61.0 °F - 55.0 °F 81% 29.96 in 9.0 mi Variable 3.5 mph - 0.00 in   Light Drizzle
11:51 PM 61.0 °F - 55.0 °F 81% 29.93 in 10.0 mi NE 4.6 mph - 0.00 in   Overcast